#timestamp,LO_Frequency,Hit,StdDev 
1661086815.2,286047002.6,N
1661086835.1,286047000.6,N
1661086836.0,286047000.6,N
1661086855.8,286046999.9,N
1661086875.6,286046999.9,N
1661086895.5,286047002.7,N
1661086915.3,286046999.8,N
1661086935.2,286047000.9,N
1661086955.9,286047001.0,N
1661086975.7,286046998.2,N
1661086995.6,286047000.2,N
1661087015.4,286047000.1,N
1661087035.2,286046999.8,N
1661087055.1,286047001.4,N
1661087056.0,286047001.4,N
1661087075.8,286047003.9,Y
1661087095.7,286047002.3,P
1661087115.5,286047004.2,P
1661087135.3,286047001.4,N
1661087155.2,286047003.9,N
1661087175.9,286047002.2,N
1661087195.7,286047002.8,N
1661087215.6,286047000.5,N
1661087235.4,286046998.7,N
1661087255.3,286047000.7,N
1661087275.1,286047000.8,N
1661087276.0,286047000.8,N
1661087295.8,286047000.0,N
1661087315.7,286047000.8,N
1661087335.5,286047002.4,N
1661087355.3,286047002.3,N
1661087375.2,286047002.8,N
1661087395.0,286047001.5,N
1661087395.9,286047001.5,N
1661087415.8,286047000.1,N
1661087435.6,286046999.8,N
1661087455.4,286046999.9,N
1661087475.3,286047001.0,N
1661087495.1,286046998.3,N
1661087515.8,286046999.3,N
1661087535.7,286046998.9,N
1661087555.5,286046998.9,N
1661087575.4,286046998.5,N
1661087595.2,286047000.6,N
1661087615.0,286047000.0,N
1661087615.9,286047000.0,N
1661087635.8,286046999.9,N
1661087655.6,286046998.2,N
1661087675.4,286046999.1,N
1661087695.3,286046999.2,N
1661087715.1,286046998.7,N
1661087735.9,286046996.9,N
1661087755.7,286046999.1,N
1661087775.5,286046996.6,N
1661087795.4,286046997.9,N
1661087815.2,286046993.3,Y
1661087835.0,286046997.2,P
1661087835.9,286046997.2,N
1661087855.8,286046997.9,N
1661087875.6,286046997.5,N
1661087895.5,286046999.5,N
1661087915.3,286046998.9,N
1661087935.1,286046998.2,N
1661087955.9,286046998.3,N
1661087975.7,286047001.0,N
1661087995.5,286046998.2,N
1661088015.4,286046998.9,N
1661088035.2,286046999.4,N
1661088055.1,286046999.4,N
1661088056.0,286046999.4,N
1661088075.8,286046999.4,N
1661088095.6,286046999.3,N
1661088115.5,286046999.1,N
1661088135.3,286046996.7,Y
1661088155.1,286046999.5,P
1661088175.9,286046999.1,N
1661088195.7,286046998.8,P
1661088215.6,286046998.1,Y
1661088235.4,286047000.0,P
1661088255.2,286047000.8,N
1661088275.1,286047000.8,N
1661088276.0,286047000.8,N
1661088295.8,286047001.2,N
1661088315.6,286047000.3,N
1661088335.5,286046998.4,N
1661088355.3,286047001.2,N
1661088375.2,286046998.9,N
1661088395.9,286046996.5,Y
1661088415.7,286046997.2,P
1661088435.6,286046997.1,N
1661088455.4,286046999.6,N
1661088475.2,286046998.8,N
1661088495.1,286046999.1,N
1661088496.0,286046999.1,N
1661088515.8,286046997.9,N
1661088535.7,286046997.9,N
1661088555.5,286046998.0,N
1661088575.3,286046997.9,N
1661088595.2,286046995.0,Y
1661088615.0,286046997.9,P
1661088615.9,286046997.9,P
1661088635.7,286046995.7,P
1661088655.6,286046995.8,Y
1661088675.4,286046997.9,P
1661088695.3,286046997.5,P
1661088715.1,286046997.8,P
1661088735.8,286046996.8,Y
1661088755.7,286047001.1,P
1661088775.5,286047000.5,N
1661088795.4,286047002.7,N
1661088815.2,286047002.6,N
1661088835.0,286047001.8,N
1661088835.9,286047001.8,N
1661088855.8,286047001.8,N
1661088875.6,286047001.6,N
1661088895.4,286047004.4,Y
1661088915.3,286047001.8,P
1661088935.1,286047004.2,P
1661088955.9,286047003.7,N
1661088975.7,286047003.2,N
1661088995.5,286047003.7,Y
1661089015.4,286046998.5,P
1661089035.2,286046998.3,N
1661089055.0,286046998.8,N
1661089055.9,286046998.8,N
1661089075.8,286047001.2,N
1661089095.6,286047001.1,N
1661089115.5,286046998.6,N
1661089135.3,286047000.5,N
1661089155.1,286046998.3,N
1661089175.9,286046998.5,N
1661089195.7,286046998.4,N
1661089215.5,286046999.0,N
1661089235.4,286046996.6,N
1661089255.2,286046999.1,N
1661089275.1,286046996.9,N
1661089276.0,286046996.9,N
1661089295.8,286046999.0,N
1661089315.6,286046998.4,N
1661089335.5,286046996.5,N
1661089355.3,286046998.4,N
1661089375.1,286047000.9,N
1661089395.9,286047000.0,N
1661089415.7,286047000.4,N
1661089435.6,286046999.8,N
1661089455.4,286047000.4,N
1661089475.2,286046998.1,N
1661089495.1,286047001.1,N
1661089496.0,286047001.1,N
1661089515.8,286047000.8,N
1661089535.6,286047000.8,N
1661089555.5,286046999.1,N
1661089575.3,286046999.1,N
1661089595.2,286046999.6,N
1661089615.9,286046996.5,N
1661089635.7,286046999.0,N
1661089655.6,286046998.4,N
1661089675.4,286046999.1,N
1661089695.2,286046999.5,N
1661089715.1,286046997.1,N
1661089716.0,286046997.1,N
1661089735.8,286046997.4,N
1661089755.7,286046996.7,N
1661089775.5,286046997.6,N
1661089795.3,286046999.5,N
1661089815.2,286046996.9,N
1661089835.0,286046999.2,N
1661089835.9,286046999.2,N
1661089855.7,286046999.2,N
1661089875.6,286046996.9,N
1661089895.4,286046995.1,Y
1661089915.3,286046997.2,P
1661089935.1,286046999.3,N
1661089936.0,286046999.3,N
1661089955.8,286046998.3,N
1661089975.7,286046999.0,N
1661089995.5,286046999.4,N
1661090015.3,286046995.3,Y
1661090035.2,286046996.9,P
1661090055.0,286046999.4,N
1661090055.9,286046999.4,N
1661090075.8,286046998.6,N
1661090095.6,286046998.7,N
1661090115.4,286046998.9,N
1661090135.3,286046997.6,Y
1661090155.1,286046998.9,P
1661090175.9,286047001.2,P
1661090195.7,286047000.4,N
1661090215.5,286047001.1,N
1661090235.4,286046999.0,N
1661090255.2,286046998.6,N
1661090275.0,286046999.0,N
1661090275.9,286046999.0,N
1661090295.8,286046999.0,N
1661090315.6,286046998.8,N
1661090335.5,286046997.1,Y
1661090355.3,286047000.8,P
1661090375.1,286047001.8,N
1661090395.9,286047004.3,P
